Location: La Chapelle
(48.3135°N, 1.3085°W)
Time: 01:39:21
(UTC+00:00)

USA 307 - Pass Details

Date: 03 March 2021
Orbit: 567 x 577 km, 54.0° (Epoch: 16 April)

Event Time Altitude Azimuth Distance (km) Brightness Sun altitude
Rises 19:55:00 0° 288° (WNW) 2,785 8.0 -21.0°
Reaches altitude 10° 19:57:23 10° 296° (WNW) 1,884 6.7 -21.4°
Maximum altitude 20:01:25 39° 6° (N) 869 3.8 -22.0°
Enters shadow 20:02:01 37° 28° (NNE) 904 3.7 -22.1°
